Weather History for Asyut, Egypt

Change the Weather History Date:

Saturday, March 1, 2014

  Actual Average Record
Temperature  
Mean Temperature 68 °F -  
Max Temperature 90 °F 77 °F - ()
Min Temperature 45 °F 49 °F - ()
Cooling Degree Days 2    
Growing Degree Days 18 (Base 50)    
Moisture  
Dew Point 35 °F    
Average Humidity 35    
Maximum Humidity 76    
Minimum Humidity 4    
Precipitation  
Precipitation 0.00 in 0.00 in - ()
Sea Level Pressure  
Sea Level Pressure 29.89 in    
Wind  
Wind Speed 6 mph ()    
Max Wind Speed 20 mph    
Max Gust Speed -    
Visibility 6.0 miles    
Events      
T = Trace of Precipitation, MM = Missing Value Source: Averaged Metar Reports

Daily Weather History Graph

Daily Weather History Graph

Search for Another Location

Airport:

Trip Planner

Search our weather history database for the weather conditions in past years. The results will help you decide how hot, cold, wet, or windy it might be!

Date:

Astronomy

Mar. 01, 2014 Rise Set
Actual Time 6:20 AM EET 5:56 PM EET
Civil Twilight 5:56 AM EET 6:20 PM EET
Nautical Twilight 5:29 AM EET 6:47 PM EET
Astronomical Twilight 5:02 AM EET 7:14 PM EET
Moon 6:04 AM EET (3/1) 6:14 PM EET (3/1)
Length of Visible Light 12h 23m
Length of Day
11h 36m
New Moon, 0% of the Moon is Illuminated
Mar 1
New Moon
Mar 8
First Quarter
Mar 16
Full
Mar 24
Last Quarter
Mar 30
New

Hourly Weather History & Observations

Time (EET) Temp. Dew Point Humidity Pressure Visibility Wind Dir Wind Speed Gust Speed Precip Events Conditions
12:00 AM 55.4 °F 44.6 °F 67% 30.01 in - WNW 2.3 mph - N/A   Clear
1:00 AM 55.4 °F 44.6 °F 67% 29.98 in - WNW 3.5 mph - N/A   Clear
2:00 AM 54 °F 43 °F 57% 29.98 in 6 mi NNW 2.3 mph - -  
2:00 AM 53.6 °F 42.8 °F 67% 29.98 in - NNW 2.3 mph - N/A   Clear
3:00 AM 51.8 °F 42.8 °F 71% 29.98 in - NW 1.2 mph - N/A   Clear
4:00 AM 51.8 °F 42.8 °F 71% 29.98 in - NNW 2.3 mph - N/A   Clear
5:00 AM 49 °F 40 °F 61% 29.94 in 6 mi ESE 1.2 mph - -  
5:00 AM 48.2 °F 39.2 °F 71% 29.95 in - ESE 1.2 mph - N/A   Clear
6:00 AM 48.2 °F 39.2 °F 71% 29.92 in - South 1.2 mph - N/A   Clear
7:00 AM 46.4 °F 39.2 °F 76% 29.92 in - SSE 2.3 mph - N/A   Clear
8:00 AM 53 °F 38 °F 46% 29.96 in 6 mi SE 4.6 mph - -  
8:00 AM - - N/A% 29.95 in - SE 4.6 mph - N/A   Clear
9:00 AM 59.0 °F 37.4 °F 45% 29.95 in - SSE 5.8 mph - N/A   Clear
10:00 AM 62.6 °F 39.2 °F 42% 29.95 in - SSE 6.9 mph - N/A   Clear
11:00 AM 72 °F 35 °F 15% 29.97 in 6 mi South 6.9 mph - -  
11:00 AM 71.6 °F 33.8 °F 25% 29.95 in - South 6.9 mph - N/A   Clear
12:00 PM 82.4 °F 35.6 °F 19% 29.92 in - South 9.2 mph - N/A   Clear
1:00 PM 84.2 °F 35.6 °F 18% 29.92 in - South 6.9 mph - N/A   Clear
2:00 PM 89 °F 27 °F 5% 29.84 in 6 mi South 15.0 mph - -   Partly Cloudy
2:00 PM 87.8 °F 26.6 °F 11% 29.89 in - South 15.0 mph - N/A   Clear
3:00 PM 89.6 °F 24.8 °F 10% 29.83 in - SSE 15.0 mph - N/A   Clear
4:00 PM 91.4 °F 23.0 °F 8% 29.80 in - SSE 19.6 mph - N/A   Clear
5:00 PM 87 °F 20 °F 4% 29.78 in 6 mi SE 17.3 mph - -   Partly Cloudy
5:00 PM 87.8 °F 19.4 °F 8% 29.80 in - SE 17.3 mph - N/A   Clear
6:00 PM 84.2 °F 21.2 °F 10% 29.80 in - East 6.9 mph - N/A   Clear
7:00 PM 75.2 °F 42.8 °F 31% 29.80 in - SE 8.1 mph - N/A   Clear
8:00 PM 73 °F 37 °F 17% 29.80 in 6 mi South 12.7 mph - -   Scattered Clouds
8:00 PM 77.0 °F 37.4 °F 24% 29.80 in - South 12.7 mph - N/A   Clear
9:00 PM 84.2 °F 37.4 °F 19% 29.80 in - SSE 13.8 mph - N/A   Clear
10:00 PM 71.6 °F 33.8 °F 25% 29.80 in - SSE 13.8 mph - N/A   Clear
11:00 PM 71 °F 31 °F 13% 29.78 in 6 mi SSE 13.8 mph - -  
11:00 PM 71.6 °F 30.2 °F 22% 29.80 in - SSE 13.8 mph - N/A   Clear